カタログに戻る

USA 215

運用中軍事LEO
NORAD 37162·PAYLOAD·🇺🇸 United States

打ち上げ Sep 21, 2010 から Vandenberg Space Force Base

Loading…

次のパス (今後24時間)

TLE

古いSource: Mike McCants

元期: Aug 11, 2026, 02:51 UTC

1 37162U 10046A   26223.11926150 0.00000000  00000-0  00000-0 0    03
2 37162 123.0058 106.8279 0006023  65.6763 294.3237 13.41433874    05

AllMySatでUSA 215をリアルタイム追跡

Download on the App Store